KLM135 EPMO-LIPE

Flight info

Callsign KLM135
Flight time 1h 38m
Altitude 36000
Route EVINA N744 TUSIN DCT MIKOV DCT GRZ DCT RADLY DCT RIFEN DCT BADOP P125 BAMEK
Aircraft B738/M-SDE2E3FGHIRWXY/LB1

Departure

Time 2026-04-17 11:01
Airport Warsaw Modlin Airport (EPMO)

Arrival

Time 2026-04-17 12:39
Airport Bologna Guglielmo Marconi Airport (LIPE)
Time Latitude Longitude Altitude Speed Heading
2026-04-17 10:45 52.44718 20.64929 350 ft 0 kts 216°
2026-04-17 10:52 52.44725 20.64937 358 ft 3 kts 215°
2026-04-17 10:52 52.44743 20.64949 353 ft 3 kts 173°
2026-04-17 10:53 52.44760 20.64936 360 ft 3 kts 123°
2026-04-17 10:53 52.44764 20.64918 359 ft 0 kts 91°
2026-04-17 10:56 52.44765 20.64934 360 ft 3 kts 89°
2026-04-17 10:56 52.44768 20.64987 353 ft 6 kts 84°
2026-04-17 10:56 52.44774 20.65065 351 ft 8 kts 83°
2026-04-17 10:57 52.44782 20.65163 352 ft 9 kts 81°
2026-04-17 10:57 52.44794 20.65278 354 ft 11 kts 79°
2026-04-17 10:57 52.44810 20.65411 357 ft 13 kts 81°
2026-04-17 10:57 52.44820 20.65563 352 ft 14 kts 83°
2026-04-17 10:58 52.44834 20.65729 349 ft 15 kts 82°
2026-04-17 10:58 52.44849 20.65895 349 ft 14 kts 81°
2026-04-17 10:58 52.44866 20.66057 359 ft 15 kts 82°
2026-04-17 10:58 52.44879 20.66230 357 ft 16 kts 82°
2026-04-17 10:59 52.44900 20.66417 353 ft 17 kts 78°
2026-04-17 10:59 52.44917 20.66621 349 ft 19 kts 82°
2026-04-17 10:59 52.44937 20.66839 349 ft 20 kts 82°
2026-04-17 10:59 52.44981 20.67044 354 ft 19 kts 38°
2026-04-17 11:00 52.45108 20.67047 352 ft 19 kts 348°
2026-04-17 11:00 52.45232 20.66994 352 ft 18 kts 336°
2026-04-17 11:00 52.45275 20.66877 349 ft 5 kts 266°
2026-04-17 11:00 52.45264 20.66727 353 ft 43 kts 262°
2026-04-17 11:01 52.45172 20.65785 354 ft 124 kts 261°
2026-04-17 11:01 52.45014 20.64076 629 ft 168 kts 264°
2026-04-17 11:01 52.44885 20.61979 1239 ft 200 kts 264°
2026-04-17 11:01 52.44557 20.59727 2225 ft 203 kts 260°
2026-04-17 11:02 52.44268 20.57446 3047 ft 204 kts 265°
2026-04-17 11:02 52.44273 20.55158 3829 ft 201 kts 293°
2026-04-17 11:02 52.45061 20.53324 4548 ft 201 kts 324°
2026-04-17 11:02 52.46395 20.52391 4877 ft 219 kts 354°
2026-04-17 11:03 52.47947 20.52222 5501 ft 227 kts 356°
2026-04-17 11:03 52.49550 20.52083 6127 ft 239 kts 356°
2026-04-17 11:03 52.51260 20.51936 6796 ft 250 kts 356°
2026-04-17 11:03 52.53009 20.51784 7644 ft 253 kts 356°
2026-04-17 11:04 52.54758 20.51629 8511 ft 256 kts 356°
2026-04-17 11:04 52.56574 20.51467 9398 ft 260 kts 357°
2026-04-17 11:04 52.58377 20.51751 10227 ft 265 kts 19°
2026-04-17 11:04 52.59921 20.53356 11013 ft 273 kts 42°
2026-04-17 11:05 52.61033 20.56055 11321 ft 303 kts 64°
2026-04-17 11:05 52.61492 20.59603 11521 ft 335 kts 85°
2026-04-17 11:05 52.61093 20.63537 11716 ft 366 kts 107°
2026-04-17 11:05 52.59788 20.67252 12219 ft 385 kts 127°
2026-04-17 11:06 52.57736 20.70170 12899 ft 397 kts 147°
2026-04-17 11:06 52.55142 20.71810 13626 ft 405 kts 169°
2026-04-17 11:06 52.52319 20.71945 14276 ft 410 kts 187°
2026-04-17 11:06 52.49495 20.71145 14918 ft 414 kts 194°
2026-04-17 11:07 52.46682 20.70029 15547 ft 418 kts 195°
2026-04-17 11:07 52.43847 20.68854 16166 ft 422 kts 195°
2026-04-17 11:07 52.41010 20.67734 16779 ft 426 kts 194°
2026-04-17 11:07 52.38101 20.66666 17427 ft 430 kts 193°
2026-04-17 11:08 52.35157 20.65656 18062 ft 434 kts 193°
2026-04-17 11:08 52.32176 20.64682 18617 ft 440 kts 192°
2026-04-17 11:08 52.29160 20.63725 19121 ft 444 kts 192°
2026-04-17 11:08 52.26113 20.62773 19670 ft 447 kts 192°
2026-04-17 11:09 52.23053 20.61823 20222 ft 449 kts 192°
2026-04-17 11:09 52.19967 20.60866 20761 ft 452 kts 192°
2026-04-17 11:09 52.16858 20.59901 21265 ft 455 kts 192°
2026-04-17 11:10 52.11664 20.58288 22115 ft 461 kts 193°
2026-04-17 11:10 52.08499 20.57305 22552 ft 465 kts 193°
2026-04-17 11:10 52.05310 20.56316 23032 ft 468 kts 193°
2026-04-17 11:10 52.02097 20.55321 23516 ft 471 kts 193°
2026-04-17 11:11 51.98866 20.54321 23946 ft 474 kts 193°
2026-04-17 11:11 51.95615 20.53317 24341 ft 477 kts 193°
2026-04-17 11:11 51.92345 20.52309 24742 ft 478 kts 193°
2026-04-17 11:11 51.89068 20.51300 25163 ft 479 kts 193°
2026-04-17 11:12 51.85786 20.50291 25542 ft 482 kts 193°
2026-04-17 11:12 51.82485 20.49277 25916 ft 484 kts 193°
2026-04-17 11:12 51.79160 20.48258 26251 ft 486 kts 193°
2026-04-17 11:12 51.75871 20.47250 26587 ft 489 kts 193°
2026-04-17 11:13 51.72472 20.46211 26927 ft 492 kts 193°
2026-04-17 11:13 51.69107 20.45184 27277 ft 494 kts 193°
2026-04-17 11:13 51.65760 20.44164 27597 ft 496 kts 193°
2026-04-17 11:13 51.62365 20.43130 27914 ft 498 kts 192°
2026-04-17 11:14 51.58943 20.42090 28222 ft 500 kts 192°
2026-04-17 11:14 51.55512 20.41049 28514 ft 503 kts 192°
2026-04-17 11:14 51.52073 20.40007 28873 ft 503 kts 192°
2026-04-17 11:14 51.48631 20.38966 29337 ft 501 kts 192°
2026-04-17 11:15 51.45201 20.37931 29836 ft 499 kts 192°
2026-04-17 11:15 51.41826 20.36773 30416 ft 493 kts 198°
2026-04-17 11:15 51.38667 20.34919 30805 ft 488 kts 207°
2026-04-17 11:15 51.35677 20.32369 31138 ft 484 kts 216°
2026-04-17 11:16 51.32967 20.29194 31462 ft 481 kts 221°
2026-04-17 11:16 51.30327 20.25913 31841 ft 479 kts 221°
2026-04-17 11:16 51.27693 20.22661 32235 ft 478 kts 221°
2026-04-17 11:16 51.25054 20.19445 32625 ft 476 kts 221°
2026-04-17 11:17 51.22417 20.16263 32987 ft 475 kts 220°
2026-04-17 11:17 51.19777 20.13099 33353 ft 473 kts 220°
2026-04-17 11:17 51.17148 20.09957 33702 ft 472 kts 220°
2026-04-17 11:17 51.14521 20.06819 34027 ft 472 kts 220°
2026-04-17 11:18 51.11897 20.03687 34341 ft 471 kts 220°
2026-04-17 11:18 51.09306 20.00601 34605 ft 470 kts 220°
2026-04-17 11:18 51.06792 19.97613 34805 ft 471 kts 220°
2026-04-17 11:18 51.04167 19.94498 35017 ft 471 kts 220°
2026-04-17 11:19 51.01536 19.91382 35225 ft 472 kts 220°
2026-04-17 11:19 50.98910 19.88276 35464 ft 472 kts 220°
2026-04-17 11:19 50.96282 19.85174 35729 ft 471 kts 220°
2026-04-17 11:19 50.93650 19.82072 35970 ft 470 kts 220°
2026-04-17 11:20 50.91022 19.78977 36170 ft 471 kts 220°
2026-04-17 11:20 50.88382 19.75870 36177 ft 474 kts 220°
2026-04-17 11:20 50.83106 19.69676 36181 ft 474 kts 220°
2026-04-17 11:21 50.77837 19.63512 36184 ft 469 kts 220°
2026-04-17 11:21 50.72601 19.57401 36193 ft 466 kts 220°
2026-04-17 11:22 50.67381 19.51324 36195 ft 465 kts 220°
2026-04-17 11:22 50.62174 19.45279 36190 ft 465 kts 220°
2026-04-17 11:23 50.56959 19.39242 36201 ft 465 kts 220°
2026-04-17 11:23 50.51728 19.33203 36219 ft 467 kts 220°
2026-04-17 11:24 50.46472 19.27154 36215 ft 469 kts 220°
2026-04-17 11:24 50.41226 19.21132 36197 ft 471 kts 220°
2026-04-17 11:25 50.35927 19.15068 36214 ft 472 kts 220°
2026-04-17 11:25 50.30613 19.09004 36216 ft 473 kts 220°
2026-04-17 11:26 50.25268 19.02921 36222 ft 475 kts 220°
2026-04-17 11:26 50.20042 18.96990 36199 ft 475 kts 220°
2026-04-17 11:27 50.14692 18.90936 36213 ft 475 kts 220°
2026-04-17 11:27 50.09342 18.84899 36218 ft 474 kts 220°
2026-04-17 11:28 50.04031 18.78922 36222 ft 474 kts 220°
2026-04-17 11:28 49.98695 18.72934 36208 ft 473 kts 220°
2026-04-17 11:29 49.93360 18.66961 36216 ft 472 kts 220°
2026-04-17 11:29 49.88024 18.61004 36217 ft 472 kts 220°
2026-04-17 11:30 49.83070 18.54490 36190 ft 462 kts 235°
2026-04-17 11:30 49.79051 18.46783 36215 ft 460 kts 237°
2026-04-17 11:31 49.75059 18.39055 36219 ft 460 kts 236°
2026-04-17 11:31 49.71052 18.31409 36193 ft 461 kts 236°
2026-04-17 11:32 49.66988 18.23732 36210 ft 462 kts 236°
2026-04-17 11:32 49.62911 18.16069 36211 ft 463 kts 236°
2026-04-17 11:33 49.58820 18.08399 36214 ft 463 kts 236°
2026-04-17 11:33 49.54716 18.00725 36215 ft 464 kts 236°
2026-04-17 11:34 49.50691 17.93219 36211 ft 465 kts 236°
2026-04-17 11:34 49.46569 17.85557 36209 ft 465 kts 236°
2026-04-17 11:35 49.42444 17.77910 36206 ft 464 kts 236°
2026-04-17 11:35 49.38317 17.70281 36208 ft 464 kts 236°
2026-04-17 11:36 49.34183 17.62660 36197 ft 464 kts 236°
2026-04-17 11:36 49.30050 17.55065 36172 ft 463 kts 236°
2026-04-17 11:37 49.25943 17.47541 36190 ft 462 kts 236°
2026-04-17 11:37 49.21824 17.40013 36207 ft 461 kts 236°
2026-04-17 11:38 49.17703 17.32503 36211 ft 460 kts 236°
2026-04-17 11:38 49.13579 17.25008 36212 ft 460 kts 236°
2026-04-17 11:39 49.09490 17.17600 36207 ft 458 kts 236°
2026-04-17 11:39 49.05375 17.10163 36208 ft 459 kts 236°
2026-04-17 11:40 49.01249 17.02727 36204 ft 459 kts 236°
2026-04-17 11:40 48.97213 16.95476 36196 ft 460 kts 236°
2026-04-17 11:41 48.93065 16.88043 36165 ft 460 kts 236°
2026-04-17 11:41 48.88925 16.80644 36181 ft 460 kts 236°
2026-04-17 11:42 48.84774 16.73244 36193 ft 460 kts 236°
2026-04-17 11:42 48.80596 16.65876 36195 ft 463 kts 232°
2026-04-17 11:43 48.75443 16.59916 36190 ft 479 kts 213°
2026-04-17 11:43 48.69315 16.55786 36207 ft 483 kts 208°
2026-04-17 11:44 48.63107 16.51826 36209 ft 484 kts 208°
2026-04-17 11:44 48.56929 16.47822 36205 ft 483 kts 209°
2026-04-17 11:45 48.50759 16.43772 36208 ft 483 kts 209°
2026-04-17 11:45 48.44603 16.39722 36205 ft 482 kts 209°
2026-04-17 11:46 48.38456 16.35689 36204 ft 482 kts 209°
2026-04-17 11:46 48.32352 16.31698 36201 ft 481 kts 209°
2026-04-17 11:47 48.26206 16.27692 36215 ft 481 kts 209°
2026-04-17 11:47 48.20064 16.23699 36211 ft 480 kts 209°
2026-04-17 11:48 48.13925 16.19718 36189 ft 480 kts 209°
2026-04-17 11:48 48.07789 16.15751 36207 ft 480 kts 209°
2026-04-17 11:49 48.01654 16.11793 36215 ft 480 kts 209°
2026-04-17 11:49 47.95576 16.07883 36211 ft 480 kts 208°
2026-04-17 11:50 47.89449 16.03952 36214 ft 479 kts 208°
2026-04-17 11:50 47.83322 16.00028 36209 ft 479 kts 208°
2026-04-17 11:51 47.77337 15.96208 36217 ft 479 kts 208°
2026-04-17 11:51 47.71210 15.92308 36206 ft 479 kts 208°
2026-04-17 11:52 47.65129 15.88445 36215 ft 479 kts 208°
2026-04-17 11:52 47.59000 15.84562 36209 ft 479 kts 208°
2026-04-17 11:53 47.52870 15.80688 36197 ft 479 kts 208°
2026-04-17 11:53 47.46740 15.76824 36200 ft 479 kts 208°
2026-04-17 11:54 47.40601 15.72964 36199 ft 479 kts 208°
2026-04-17 11:54 47.34460 15.69113 36194 ft 479 kts 208°
2026-04-17 11:55 47.28328 15.65277 36200 ft 479 kts 208°
2026-04-17 11:55 47.22196 15.61451 36199 ft 478 kts 208°
2026-04-17 11:56 47.16107 15.57661 36202 ft 478 kts 208°
2026-04-17 11:56 47.09986 15.53860 36189 ft 477 kts 207°
2026-04-17 11:57 47.03869 15.50070 36185 ft 477 kts 207°
2026-04-17 11:57 46.97768 15.46300 36190 ft 477 kts 207°
2026-04-17 11:58 46.91788 15.42155 36186 ft 473 kts 213°
2026-04-17 11:58 46.86010 15.37549 36188 ft 473 kts 213°
2026-04-17 11:59 46.80223 15.32961 36191 ft 474 kts 213°
2026-04-17 11:59 46.74409 15.28430 36183 ft 474 kts 212°
2026-04-17 12:00 46.68594 15.23910 36193 ft 473 kts 214°
2026-04-17 12:00 46.64270 15.19218 36200 ft 463 kts 229°
2026-04-17 12:01 46.60298 15.12015 36172 ft 454 kts 240°
2026-04-17 12:01 46.56735 15.04430 36183 ft 454 kts 240°
2026-04-17 12:02 46.53220 14.97014 36180 ft 454 kts 240°
2026-04-17 12:02 46.49607 14.89489 36184 ft 455 kts 240°
2026-04-17 12:03 46.45965 14.81959 36174 ft 455 kts 239°
2026-04-17 12:03 46.42324 14.74456 36173 ft 455 kts 239°
2026-04-17 12:04 46.38669 14.66941 36171 ft 456 kts 239°
2026-04-17 12:04 46.35006 14.59427 36162 ft 457 kts 239°
2026-04-17 12:05 46.31333 14.51913 36158 ft 457 kts 239°
2026-04-17 12:05 46.27653 14.44406 36145 ft 457 kts 239°
2026-04-17 12:06 46.24003 14.36980 36154 ft 455 kts 239°
2026-04-17 12:06 46.20331 14.29528 36149 ft 455 kts 239°
2026-04-17 12:07 46.16658 14.22094 36164 ft 455 kts 239°
2026-04-17 12:07 46.12980 14.14666 36155 ft 455 kts 239°
2026-04-17 12:08 46.09292 14.07241 36136 ft 455 kts 238°
2026-04-17 12:08 46.05638 13.99905 36144 ft 455 kts 238°
2026-04-17 12:09 46.02025 13.92667 36155 ft 455 kts 238°
2026-04-17 12:09 45.98369 13.85361 36154 ft 455 kts 238°
2026-04-17 12:10 45.94659 13.77968 36139 ft 456 kts 238°
2026-04-17 12:10 45.90939 13.70571 36139 ft 457 kts 238°
2026-04-17 12:11 45.87205 13.63167 36131 ft 457 kts 238°
2026-04-17 12:12 45.81100 13.52614 36143 ft 461 kts 230°
2026-04-17 12:12 45.76617 13.46004 36105 ft 462 kts 230°
2026-04-17 12:13 45.72202 13.39435 36133 ft 461 kts 230°
2026-04-17 12:13 45.67784 13.32783 36124 ft 460 kts 230°
2026-04-17 12:14 45.63376 13.26135 36124 ft 460 kts 230°
2026-04-17 12:14 45.58965 13.19501 36124 ft 460 kts 230°
2026-04-17 12:15 45.54555 13.12888 36137 ft 460 kts 230°
2026-04-17 12:15 45.50142 13.06284 36137 ft 460 kts 230°
2026-04-17 12:16 45.45691 12.99880 36136 ft 464 kts 223°
2026-04-17 12:16 45.40380 12.94708 36138 ft 467 kts 216°
2026-04-17 12:17 45.34952 12.89621 36146 ft 467 kts 218°
2026-04-17 12:17 45.30320 12.83412 35929 ft 461 kts 236°
2026-04-17 12:17 45.28562 12.79612 35322 ft 457 kts 248°
2026-04-17 12:18 45.27434 12.75433 34577 ft 451 kts 259°
2026-04-17 12:18 45.26636 12.71136 33884 ft 451 kts 259°
2026-04-17 12:18 45.25818 12.66830 33109 ft 452 kts 259°
2026-04-17 12:18 45.24973 12.62546 32400 ft 451 kts 258°
2026-04-17 12:19 45.24100 12.58262 31666 ft 452 kts 258°
2026-04-17 12:19 45.23211 12.53989 30928 ft 452 kts 257°
2026-04-17 12:19 45.22311 12.49709 30170 ft 453 kts 257°
2026-04-17 12:19 45.21405 12.45421 29250 ft 454 kts 257°
2026-04-17 12:20 45.20501 12.41150 28633 ft 448 kts 257°
2026-04-17 12:20 45.19607 12.36937 28014 ft 443 kts 257°
2026-04-17 12:20 45.18726 12.32780 27437 ft 438 kts 257°
2026-04-17 12:20 45.17854 12.28664 26866 ft 434 kts 257°
2026-04-17 12:21 45.16987 12.24577 26278 ft 431 kts 257°
2026-04-17 12:21 45.16125 12.20531 25744 ft 427 kts 257°
2026-04-17 12:21 45.15199 12.16545 25190 ft 425 kts 253°
2026-04-17 12:21 45.14154 12.12646 24642 ft 423 kts 252°
2026-04-17 12:22 45.13062 12.08788 24080 ft 421 kts 251°
2026-04-17 12:22 45.11966 12.04954 23494 ft 419 kts 251°
2026-04-17 12:22 45.10879 12.01131 22876 ft 417 kts 251°
2026-04-17 12:22 45.09857 11.97506 22327 ft 413 kts 251°
2026-04-17 12:23 45.08803 11.93744 21780 ft 410 kts 251°
2026-04-17 12:23 45.07760 11.90007 21237 ft 406 kts 251°
2026-04-17 12:23 45.06728 11.86307 20711 ft 403 kts 251°
2026-04-17 12:23 45.05701 11.82625 20184 ft 400 kts 251°
2026-04-17 12:24 45.04693 11.79017 19666 ft 398 kts 250°
2026-04-17 12:24 45.03678 11.75389 19145 ft 396 kts 250°
2026-04-17 12:24 45.02667 11.71780 18618 ft 394 kts 250°
2026-04-17 12:24 45.01660 11.68191 18036 ft 392 kts 250°
2026-04-17 12:25 45.00653 11.64614 17474 ft 390 kts 250°
2026-04-17 12:25 44.99658 11.61087 16970 ft 386 kts 250°
2026-04-17 12:25 44.98666 11.57582 16469 ft 382 kts 250°
2026-04-17 12:25 44.97679 11.54102 15937 ft 380 kts 250°
2026-04-17 12:26 44.96700 11.50654 15461 ft 377 kts 249°
2026-04-17 12:26 44.95724 11.47220 14955 ft 375 kts 249°
2026-04-17 12:26 44.94755 11.43813 14456 ft 373 kts 249°
2026-04-17 12:26 44.93790 11.40421 13927 ft 372 kts 249°
2026-04-17 12:27 44.92827 11.37044 13373 ft 370 kts 249°
2026-04-17 12:27 44.91869 11.33692 12853 ft 367 kts 249°
2026-04-17 12:27 44.90629 11.30564 12313 ft 367 kts 229°
2026-04-17 12:27 44.88663 11.28311 11880 ft 365 kts 210°
2026-04-17 12:28 44.86305 11.27029 11389 ft 363 kts 197°
2026-04-17 12:28 44.83894 11.26093 11138 ft 353 kts 196°
2026-04-17 12:28 44.81563 11.25181 10958 ft 342 kts 197°
2026-04-17 12:28 44.79333 11.24281 10839 ft 332 kts 197°
2026-04-17 12:29 44.77149 11.23385 10697 ft 322 kts 197°
2026-04-17 12:29 44.75028 11.22502 10562 ft 313 kts 197°
2026-04-17 12:29 44.72967 11.21643 10424 ft 305 kts 197°
2026-04-17 12:29 44.70934 11.20925 10288 ft 298 kts 185°
2026-04-17 12:30 44.68918 11.21291 10101 ft 293 kts 158°
2026-04-17 12:30 44.67214 11.22810 9815 ft 290 kts 135°
2026-04-17 12:30 44.66037 11.25075 9447 ft 286 kts 116°
2026-04-17 12:30 44.65146 11.27560 9158 ft 285 kts 115°
2026-04-17 12:31 44.64270 11.30046 8865 ft 283 kts 115°
2026-04-17 12:31 44.63392 11.32514 8589 ft 282 kts 116°
2026-04-17 12:31 44.62508 11.34963 8308 ft 280 kts 116°
2026-04-17 12:31 44.61627 11.37397 8038 ft 279 kts 116°
2026-04-17 12:32 44.60747 11.39817 7744 ft 278 kts 115°
2026-04-17 12:32 44.59881 11.42195 7509 ft 275 kts 115°
2026-04-17 12:32 44.59013 11.44574 7403 ft 267 kts 115°
2026-04-17 12:32 44.58188 11.46838 7210 ft 263 kts 115°
2026-04-17 12:33 44.57362 11.49143 6921 ft 264 kts 115°
2026-04-17 12:33 44.56541 11.51443 6651 ft 263 kts 115°
2026-04-17 12:33 44.55719 11.53742 6272 ft 267 kts 115°
2026-04-17 12:33 44.54884 11.56072 5952 ft 267 kts 115°
2026-04-17 12:34 44.54047 11.58404 5657 ft 267 kts 115°
2026-04-17 12:34 44.53159 11.60687 5369 ft 267 kts 126°
2026-04-17 12:34 44.51721 11.62285 5171 ft 265 kts 157°
2026-04-17 12:34 44.49963 11.62709 5034 ft 260 kts 182°
2026-04-17 12:35 44.48240 11.62081 4912 ft 255 kts 204°
2026-04-17 12:35 44.46677 11.60982 4804 ft 248 kts 206°
2026-04-17 12:35 44.45179 11.59807 4557 ft 248 kts 218°
2026-04-17 12:35 44.44227 11.57861 4339 ft 244 kts 257°
2026-04-17 12:37 44.48515 11.42922 2468 ft 247 kts 298°
2026-04-17 12:37 44.49288 11.40754 2067 ft 243 kts 298°
2026-04-17 12:38 44.50027 11.38683 1699 ft 232 kts 298°
2026-04-17 12:38 44.50719 11.36747 1315 ft 219 kts 298°
2026-04-17 12:38 44.51375 11.34917 991 ft 203 kts 298°
2026-04-17 12:38 44.51988 11.33208 696 ft 189 kts 298°
2026-04-17 12:39 44.52545 11.31654 435 ft 169 kts 298°
2026-04-17 12:39 44.53048 11.30247 219 ft 157 kts 297°
2026-04-17 12:39 44.53519 11.28931 130 ft 136 kts 296°
2026-04-17 12:39 44.53782 11.28190 132 ft 26 kts 296°
2026-04-17 12:40 44.53832 11.28027 129 ft 18 kts 282°
2026-04-17 12:40 44.53744 11.27989 128 ft 20 kts 146°
2026-04-17 12:40 44.53640 11.28079 129 ft 19 kts 139°
2026-04-17 12:40 44.53588 11.28241 128 ft 6 kts 112°
2026-04-17 12:41 44.53544 11.28310 126 ft 14 kts 153°
2026-04-17 12:41 44.53442 11.28361 126 ft 7 kts 155°
2026-04-17 12:41 44.53401 11.28365 126 ft 1 kts 187°
2026-04-17 12:41 44.53397 11.28364 127 ft 0 kts 188°